DW2849 Weather Reports


Display with metric or nautical units.
time (UTC)temp
F
wind
direction
speed
MPH
gust
MPH
rain 1hr
in
rain 24hr
in
rain mn
in
humidity
%
barometer
mb
20260510173655 60 112 1.0 3.0 0.00 0.00 0.00 80 1014.4
20260510172954 59 135 2.0 4.0 0.00 0.00 0.00 80 1014.3
20260510172255 59 135 2.0 2.0 0.00 0.00 0.00 80 1014.3
20260510171601 59 135 2.0 2.0 0.00 0.00 0.00 81 1014.3
20260510170854 59 68 0.0 2.0 0.00 0.00 0.00 80 1014.3
20260510170155 58 101 1.0 3.0 0.00 0.00 0.00 81 1014.2
20260510165306 57 96 0.0 3.0 0.00 0.00 0.00 81 1014.2
20260510164603 56 22 1.0 2.0 0.00 0.00 0.00 82 1014.1
20260510163903 55 45 0.0 2.0 0.00 0.00 0.00 84 1014.1
20260510163203 54 22 1.0 2.0 0.00 0.00 0.00 84 1014.1
20260510162312 53 39 0.0 3.0 0.00 0.00 0.00 85 1014.1
20260510161612 52 11 2.0 2.0 0.00 0.00 0.00 86 1014.0
20260510160912 52 53 0.0 1.0 0.00 0.00 0.00 86 1014.0
20260510160212 52 135 0.0 2.0 0.00 0.00 0.00 86 1013.9
20260510155512 51 217 1.0 2.0 0.00 0.00 0.00 87 1013.9
20260510154812 50 236 0.0 0.0 0.00 0.00 0.00 87 1013.9
20260510153920 50 180 0.0 1.0 0.00 0.00 0.00 87 1013.8
20260510153222 50 228 0.0 1.0 0.00 0.00 0.00 87 1013.8
20260510152520 50 17 0.0 0.0 0.00 0.00 0.00 87 1013.8
20260510151820 49 0 0.0 0.0 0.00 0.00 0.00 88 1013.8
20260510151120 49 0 0.0 0.0 0.00 0.00 0.00 88 1013.8
20260510150420 48 0 0.0 0.0 0.00 0.00 0.00 88 1013.8
20260510145529 48 0 0.0 0.0 0.00 0.00 0.00 88 1013.6
20260510144829 47 0 0.0 1.0 0.00 0.00 0.00 88 1013.6
20260510143938 47 0 1.0 2.0 0.00 0.00 0.00 88 1013.5
20260510143238 47 8 2.0 3.0 0.00 0.00 0.00 88 1013.5
20260510142537 47 45 2.0 3.0 0.00 0.00 0.00 88 1013.4
20260510141838 47 45 2.0 2.0 0.00 0.00 0.00 88 1013.4
20260510141138 47 45 2.0 3.0 0.00 0.00 0.00 88 1013.3
20260510140437 47 35 2.0 3.0 0.00 0.00 0.00 88 1013.2
20260510135738 48 22 2.0 3.0 0.00 0.00 0.00 88 1013.1
20260510134150 47 0 0.0 1.0 0.00 0.00 0.00 87 1012.9
20260510133446 47 270 0.0 1.0 0.00 0.00 0.00 88 1012.8
20260510132555 46 0 1.0 2.0 0.00 0.00 0.00 88 1012.7
20260510131855 46 22 1.0 2.0 0.00 0.00 0.00 88 1012.7
20260510131155 46 0 2.0 3.0 0.00 0.00 0.00 88 1012.6
20260510130456 46 42 3.0 3.0 0.00 0.00 0.00 88 1012.6
20260510125755 46 45 3.0 3.0 0.00 0.00 0.00 88 1012.6
20260510125055 47 45 2.0 3.0 0.00 0.00 0.00 87 1012.7
20260510124356 48 0 3.0 3.0 0.00 0.00 0.00 87 1012.7
20260510123655 49 318 0.0 1.0 0.00 0.00 0.00 87 1012.7
20260510122807 48 312 0.0 0.0 0.00 0.00 0.00 87 1012.7
20260510122104 48 225 0.0 2.0 0.00 0.00 0.00 88 1012.7
20260510121404 48 225 1.0 2.0 0.00 0.00 0.00 88 1012.7
20260510120704 49 270 0.0 1.0 0.00 0.00 0.00 88 1012.7
20260510120004 49 270 0.0 0.0 0.00 0.00 0.00 88 1012.7
20260510115306 50 225 0.0 0.0 0.00 0.00 0.00 88 1012.8
20260510114411 50 225 1.0 1.0 0.00 0.00 0.00 88 1012.8
20260510113711 52 45 0.0 0.0 0.00 0.00 0.00 87 1012.8
20260510113011 51 45 0.0 0.0 0.00 0.00 0.00 87 1012.8
20260510112311 51 45 0.0 1.0 0.00 0.00 0.00 87 1012.8
20260510111421 50 0 1.0 2.0 0.00 0.00 0.00 87 1012.8
20260510110528 50 0 1.0 2.0 0.00 0.00 0.00 87 1012.8
20260510105829 50 0 2.0 2.0 0.00 0.00 0.00 87 1012.8
20260510105128 50 340 0.0 0.0 0.00 0.00 0.00 87 1012.8
20260510104429 51 180 0.0 0.0 0.00 0.00 0.00 87 1012.8
20260510103729 51 180 0.0 0.0 0.00 0.00 0.00 87 1012.7
20260510103029 51 56 0.0 0.0 0.00 0.00 0.00 87 1012.8
20260510102329 52 45 0.0 0.0 0.00 0.00 0.00 87 1012.7
20260510101629 51 45 0.0 0.0 0.00 0.00 0.00 87 1012.8
20260510100929 51 22 0.0 0.0 0.00 0.00 0.00 88 1012.8
20260510100229 51 22 0.0 0.0 0.00 0.00 0.00 88 1012.7
20260510095146 51 22 0.0 0.0 0.00 0.00 0.00 87 1012.8
20260510094446 51 45 0.0 0.0 0.00 0.00 0.00 87 1012.8
20260510093746 51 45 0.0 0.0 0.00 0.00 0.00 87 1012.8
20260510093046 52 45 0.0 0.0 0.00 0.00 0.00 87 1012.7
20260510092346 52 45 0.0 0.0 0.00 0.00 0.00 87 1012.7
20260510091646 52 45 0.0 0.0 0.00 0.00 0.00 87 1012.7
20260510090946 53 135 0.0 0.0 0.00 0.00 0.00 87 1012.8
20260510090055 53 135 0.0 0.0 0.00 0.00 0.00 86 1012.9
20260510085355 54 0 0.0 0.0 0.00 0.00 0.00 86 1012.9
20260510084655 54 0 0.0 0.0 0.00 0.00 0.00 86 1013.0
20260510083955 54 0 0.0 1.0 0.00 0.00 0.00 86 1013.0
20260510083255 54 0 1.0 2.0 0.00 0.00 0.00 86 1013.0
20260510082555 54 6 1.0 2.0 0.00 0.00 0.00 86 1013.1
20260510081855 55 22 0.0 2.0 0.00 0.00 0.00 86 1013.1
20260510081155 55 28 2.0 2.0 0.00 0.00 0.00 85 1013.0
20260510080304 54 22 1.0 2.0 0.00 0.00 0.00 85 1013.0
20260510075603 54 0 0.0 2.0 0.00 0.00 0.00 86 1013.0
20260510074712 54 0 0.0 2.0 0.00 0.00 0.00 86 1013.0
20260510074012 54 0 2.0 2.0 0.00 0.00 0.00 85 1013.0
20260510073312 54 0 1.0 1.0 0.00 0.00 0.00 86 1013.0
20260510072612 54 45 0.0 0.0 0.00 0.00 0.00 86 1013.1
20260510071912 55 45 0.0 0.0 0.00 0.00 0.00 86 1013.1
20260510071212 54 45 0.0 0.0 0.00 0.00 0.00 86 1013.1
20260510070512 54 45 0.0 0.0 0.00 0.00 0.00 85 1013.0
20260510065621 55 45 0.0 0.0 0.00 0.00 0.00 86 1013.0
20260510064921 56 45 0.0 0.0 0.00 0.00 0.00 85 1013.0
20260510064221 57 45 0.0 0.0 0.00 0.00 0.00 85 1013.0
20260510063521 56 45 0.0 2.0 0.00 0.00 0.00 85 1012.9
20260510062821 57 45 1.0 2.0 0.00 0.00 0.00 85 1012.9
20260510061930 58 45 1.0 2.0 0.00 0.00 0.00 84 1012.9
20260510061229 58 45 2.0 2.0 0.00 0.00 0.00 83 1012.8
20260510060338 58 45 0.0 0.0 0.00 0.00 0.00 84 1012.9
20260510055638 58 45 0.0 0.0 0.00 0.00 0.00 84 1013.0
20260510054938 59 45 0.0 0.0 0.00 0.00 0.00 82 1013.0
20260510054238 59 45 0.0 0.0 0.00 0.00 0.00 82 1013.0
20260510053538 59 45 0.0 0.0 0.00 0.00 0.00 81 1012.9
20260510052838 59 228 0.0 0.0 0.00 0.00 0.00 82 1013.0
20260510052138 58 225 0.0 0.0 0.00 0.00 0.00 83 1012.9
20260510051438 58 225 0.0 0.0 0.00 0.00 0.00 83 1013.0
20260510050548 57 191 0.0 0.0 0.00 0.00 0.00 84 1013.0
20260510045847 57 180 0.0 0.0 0.00 0.00 0.00 84 1013.0
20260510045147 57 39 0.0 0.0 0.00 0.00 0.00 84 1013.0
20260510044447 56 180 0.0 0.0 0.00 0.00 0.00 84 1013.0
20260510043555 57 180 0.0 1.0 0.00 0.00 0.00 84 1012.9
20260510042856 57 180 0.0 1.0 0.00 0.00 0.00 84 1012.8
20260510042005 57 180 0.0 2.0 0.00 0.00 0.00 84 1012.7
20260510041304 59 180 1.0 2.0 0.00 0.00 0.00 83 1012.7
20260510040605 60 180 0.0 2.0 0.00 0.00 0.00 82 1012.6
20260510035904 61 0 0.0 0.0 0.00 0.00 0.00 80 1012.6
20260510035205 62 0 0.0 0.0 0.00 0.00 0.00 80 1012.5
20260510034313 61 0 0.0 0.0 0.00 0.00 0.00 80 1012.4
20260510033613 62 0 0.0 2.0 0.00 0.00 0.00 78 1012.3
20260510032913 63 0 1.0 2.0 0.00 0.00 0.00 78 1012.3
20260510032213 63 0 2.0 2.0 0.00 0.00 0.00 77 1012.2
20260510031514 63 0 2.0 2.0 0.00 0.00 0.00 76 1012.2
20260510030621 63 0 0.0 0.0 0.00 0.00 0.00 75 1012.1
20260510025922 64 0 0.0 0.0 0.00 0.00 0.00 74 1012.2
20260510025221 64 0 0.0 2.0 0.00 0.00 0.00 74 1012.2
20260510024522 65 323 0.0 2.0 0.00 0.00 0.00 74 1012.1
20260510023822 65 315 0.0 1.0 0.00 0.00 0.00 74 1012.1
20260510023121 64 315 0.0 0.0 0.00 0.00 0.00 73 1012.1
20260510022422 64 315 0.0 2.0 0.00 0.00 0.00 74 1012.0
20260510021530 64 315 2.0 3.0 0.00 0.00 0.00 74 1012.0
20260510020830 64 315 0.0 3.0 0.00 0.00 0.00 74 1012.1
20260510020131 64 309 2.0 4.0 0.00 0.00 0.00 73 1012.1
20260510015430 65 332 2.0 3.0 0.00 0.00 0.00 73 1012.1
20260510014730 65 315 2.0 2.0 0.00 0.00 0.00 73 1012.1
20260510013839 65 305 2.0 4.0 0.00 0.00 0.00 73 1012.1
20260510013139 66 292 2.0 4.0 0.00 0.00 0.00 73 1012.1
20260510012439 66 265 2.0 3.0 0.00 0.00 0.00 73 1012.1
20260510011739 66 262 2.0 6.0 0.00 0.00 0.00 72 1012.2
20260510011039 66 240 4.0 6.0 0.00 0.00 0.00 73 1012.2
20260510010339 67 205 2.0 4.0 0.00 0.00 0.00 73 1012.2
20260510005448 67 252 2.0 4.0 0.00 0.00 0.00 72 1012.3
20260510004749 67 233 2.0 5.0 0.00 0.00 0.00 72 1012.3
20260510004048 67 225 2.0 6.0 0.00 0.00 0.00 72 1012.4
20260510003348 68 252 3.0 5.0 0.00 0.00 0.00 71 1012.5
20260510002648 68 278 3.0 5.0 0.00 0.00 0.00 71 1012.5
20260510001756 69 252 3.0 5.0 0.00 0.00 0.00 70 1012.5
20260510001057 69 248 3.0 6.0 0.00 0.00 0.00 70 1012.6
20260510000357 69 281 4.0 6.0 0.00 0.00 0.00 71 1012.7
20260509235505 69 276 4.0 8.0 0.00 0.00 0.00 70 1012.7
20260509234805 69 272 2.0 6.0 0.00 0.00 0.00 72 1012.8
20260509234105 69 265 2.0 4.0 0.00 0.00 0.00 71 1012.9
20260509233405 70 212 2.0 4.0 0.00 0.00 0.00 70 1012.9
20260509232514 71 222 3.0 6.0 0.00 0.00 0.00 69 1013.0
20260509231813 70 228 3.0 7.0 0.00 0.00 0.00 69 1013.0
20260509231114 70 272 4.0 7.0 0.00 0.00 0.00 69 1013.0
20260509230414 70 268 4.0 6.0 0.00 0.00 0.00 70 1013.1
20260509225714 70 304 3.0 6.0 0.00 0.00 0.00 69 1013.2
20260509225014 71 259 3.0 6.0 0.00 0.00 0.00 69 1013.3
20260509224314 71 235 2.0 5.0 0.00 0.00 0.00 69 1013.4
20260509223613 71 222 3.0 4.0 0.00 0.00 0.00 69 1013.5
20260509222913 71 195 3.0 5.0 0.00 0.00 0.00 70 1013.6
20260509222214 71 231 2.0 6.0 0.00 0.00 0.00 70 1013.7
20260509221129 71 208 3.0 6.0 0.00 0.00 0.00 71 1013.9
20260509220429 71 218 3.0 5.0 0.00 0.00 0.00 70 1013.9
20260509215729 71 200 3.0 4.0 0.00 0.00 0.00 70 1014.0
20260509215029 72 200 3.0 5.0 0.00 0.00 0.00 70 1014.0
20260509214329 72 215 3.0 6.0 0.00 0.00 0.00 70 1014.1
20260509213629 72 245 2.0 4.0 0.00 0.00 0.00 71 1014.1
20260509212929 72 219 3.0 4.0 0.00 0.00 0.00 69 1014.2
20260509212229 72 245 3.0 6.0 0.00 0.00 0.00 70 1014.3
20260509211529 73 202 2.0 5.0 0.00 0.00 0.00 70 1014.3
20260509210638 73 228 2.0 4.0 0.00 0.00 0.00 70 1014.3
20260509205747 72 190 3.0 6.0 0.00 0.00 0.00 70 1014.3
20260509205047 72 172 2.0 5.0 0.00 0.00 0.00 70 1014.4
20260509204346 72 233 2.0 5.0 0.00 0.00 0.00 69 1014.3
20260509203647 72 228 3.0 6.0 0.00 0.00 0.00 69 1014.4
20260509202948 71 250 3.0 6.0 0.00 0.00 0.00 71 1014.4
20260509202246 70 208 2.0 6.0 0.00 0.00 0.00 71 1014.5
20260509201547 71 281 4.0 6.0 0.00 0.00 0.00 71 1014.6
20260509200655 71 228 3.0 6.0 0.00 0.00 0.00 71 1014.7
20260509195955 71 258 2.0 6.0 0.00 0.00 0.00 72 1014.7
20260509195256 69 250 3.0 6.0 0.00 0.00 0.00 72 1014.7
20260509194555 69 155 2.0 5.0 0.00 0.00 0.00 72 1014.7
20260509193855 68 188 1.0 4.0 0.00 0.00 0.00 73 1014.7
20260509193155 68 146 2.0 5.0 0.00 0.00 0.00 73 1014.8
20260509192306 68 215 3.0 4.0 0.00 0.00 0.00 73 1014.8
20260509191604 67 185 2.0 4.0 0.00 0.00 0.00 73 1014.9
20260509190904 67 170 2.0 3.0 0.00 0.00 0.00 74 1015.0
20260509190204 66 180 1.0 2.0 0.00 0.00 0.00 75 1015.0
20260509185504 66 186 1.0 3.0 0.00 0.00 0.00 75 1015.0
20260509184804 0 185 1.0 3.0 0.00 0.00 0.00 1015.0
20260509184104 65 132 2.0 3.0 0.00 0.00 0.00 76 1015.0
20260509183021 65 125 1.0 3.0 0.00 0.00 0.00 76 1015.1
20260509182322 65 145 2.0 3.0 0.00 0.00 0.00 75 1015.1
20260509181621 64 174 1.0 3.0 0.00 0.00 0.00 75 1015.1
20260509180922 63 160 2.0 3.0 0.00 0.00 0.00 76 1015.1
20260509180222 63 192 2.0 3.0 0.00 0.00 0.00 76 1015.1
20260509175522 63 178 1.0 3.0 0.00 0.00 0.00 76 1015.1
20260509174822 63 130 2.0 3.0 0.00 0.00 0.00 76 1015.1